Home > Weather > Brandon > Past weeks

Flag for Canada Past Weather in Brandon, Manitoba, Canada — Yesterday and Last 2 Weeks

Now
52 °F

Clear.


Feels Like: 51 °F
Forecast: 46 / 75 °F
Wind: 3 mph from East

Location: Brandon

Current Time: May 30, 2016 at 1:52:36 AM

Latest Report: May 30, 2016 at 1:00 AM


Visibility: 15 mi

Pressure: 29.92 "Hg

Humidity: 94%

Dew Point: 50 °F

Location of BrandonLocation

Past Weather in Brandon — Graph

°F

Brandon Temperature Yesterday

Maximum temperature yesterday: 73 °F (at 6:00 PM)
Minimum temperature yesterday: 48 °F (at 3:00 AM)
Average temperature yesterday: 60 °F

High & Low Weather Summary for the Past Weeks

 TemperatureHumidityPressure
High81 °F (May 19, 3:00 PM)100% (May 16, 3:00 AM)30.37 "Hg (May 16, 3:00 AM)
Low28 °F (May 15, 4:00 AM)20% (May 19, 4:00 PM)29.51 "Hg (May 23, 3:00 AM)
Average60 °F63%29.92 "Hg
* Reported May 15 1:00 AM — May 30 1:00 AM, Brandon, Weather by CustomWeather, © 2016

Note: Actual official high and low records may vary slightly from our data, if they occured in-between our weather recording intervals... More about our weather records

Advertising

Brandon Weather History for the Previous 24 Hours

Scroll right to see more
 ConditionsComfort  
Time TempWeatherWind HumidityBarometerVisibility
1:00 AM
Mon, May 30
52 °FClear.3 mph94%29.92 "Hg15 mi
12:00 AM54 °FClear.8 mph94%29.92 "Hg15 mi
11:00 PM
Sun, May 29
55 °FPassing clouds.9 mph88%29.92 "Hg15 mi
10:00 PM61 °FPassing clouds.No wind63%29.92 "Hg15 mi
9:00 PM66 °FMild.5 mph52%29.91 "Hg15 mi
8:00 PM72 °FPassing clouds.9 mph38%29.90 "Hg15 mi
7:00 PM72 °FPassing clouds.12 mph38%29.91 "Hg15 mi
6:00 PM73 °FScattered clouds.15 mph36%29.91 "Hg15 mi
5:00 PM72 °FScattered clouds.17 mph38%29.92 "Hg15 mi
4:00 PM70 °FPartly sunny.17 mph43%29.93 "Hg15 mi
3:00 PM70 °FPartly sunny.12 mph53%29.93 "Hg15 mi
2:00 PM66 °FPartly sunny.10 mph60%29.94 "Hg15 mi
1:00 PM66 °FPartly sunny.14 mph64%29.95 "Hg15 mi
12:00 PM63 °FPartly sunny.10 mph77%29.96 "Hg15 mi
11:00 AM61 °FPartly sunny.8 mph83%29.96 "Hg12 mi
10:00 AM57 °FMore clouds than sun.14 mph88%29.98 "Hg12 mi
9:00 AM55 °FMostly cloudy.6 mph88%29.97 "Hg12 mi
8:00 AM52 °FLow clouds.6 mph100%29.98 "Hg8 mi
7:00 AM52 °FLight rain. Partly sunny.2 mph100%29.98 "Hg8 mi
6:00 AM52 °FLight rain. Fog.5 mph100%29.98 "Hg2 mi
5:50 AM52 °FLight rain. Fog.3 mph100%29.98 "Hg2 mi
5:00 AM52 °FMostly cloudy.3 mph94%29.97 "Hg12 mi
4:00 AM50 °FOvercast.2 mph100%29.96 "Hg12 mi
3:00 AM48 °FPartly cloudy.2 mph100%29.97 "Hg15 mi
2:00 AM50 °FMostly cloudy.6 mph100%29.97 "Hg12 mi
1:00 AM52 °FLow clouds.5 mph94%29.98 "Hg12 mi
Weather by CustomWeather, © 2016

See weather overviewHow to use our weather pages